Terminal Aerodrome Forecast
Issued by NWS Milwaukee/Sullivan, WI

Home | Current Version | Previous Version | Text Only | Print | Product List | Glossary On
Versions: 1 2 3 4 5 6 7 8 9 10 11 12 13 14 15 16 17 18 19 20 21 22 23 24 25 26 27 28 29 30 31 32 33 34 35 36 37 38 39 40 41 42 43 44 45 46 47 48 49 50
000
FTUS43 KMKX 301731
TAFMKE
TAF
KMKE 301731Z 3018/3124 04010KT P6SM FEW015 SCT025
     FM302100 07008KT P6SM VCSH FEW025
     FM310300 14005KT P6SM SKC
     FM311500 25008KT P6SM FEW050
     FM312000 25008KT P6SM VCSH BKN050=

USA.gov is the U.S. government's official web portal to all federal, state and local government web resources and services.